EW4806 Weather Reports


Display with metric or nautical units.
time (UTC)temp
F
wind
direction
speed
MPH
gust
MPH
rain 1hr
in
rain 24hr
in
rain mn
in
humidity
%
barometer
mb
20260906213954 63 27 0.0 0.0 0.01 0.09 0.08 62 1017.3
20260906212454 63 4 0.0 10.0 0.00 0.08 0.08 64 1017.5
20260906211647 67 239 1.0 8.0 0.00 0.08 0.07 47 1017.1
20260906205456 67 234 1.0 5.0 0.00 0.08 0.07 44 1016.9
20260906203953 68 324 0.0 2.0 0.00 0.08 0.07 43 1016.9
20260906203142 67 268 0.0 9.0 0.00 0.08 0.07 46 1016.8
20260906201649 66 279 0.0 0.0 0.00 0.08 0.07 47 1016.9
20260906195450 65 318 0.0 1.0 0.00 0.08 0.07 49 1017.0
20260906193949 65 293 0.0 1.0 0.00 0.08 0.07 52 1017.2
20260906193141 65 297 0.0 3.0 0.00 0.08 0.07 55 1017.2
20260906191640 64 284 0.0 0.0 0.00 0.08 0.07 54 1017.5
20260906185446 64 274 0.0 1.0 0.00 0.08 0.07 55 1017.6
20260906183945 62 106 0.0 2.0 0.00 0.08 0.07 58 1017.6
20260906182443 62 132 0.0 0.0 0.00 0.08 0.07 61 1017.6
20260906180944 60 279 0.0 1.0 0.00 0.08 0.07 63 1017.8
20260906180139 60 270 0.0 3.0 0.00 0.08 0.07 64 1017.8
20260906173941 60 295 0.0 1.0 0.00 0.08 0.07 69 1017.7
20260906172438 59 262 0.0 1.0 0.00 0.08 0.07 72 1017.7
20260906170939 58 265 0.0 0.0 0.00 0.08 0.07 75 1017.6
20260906165438 58 297 0.0 0.0 0.00 0.08 0.07 76 1017.7
20260906163939 58 85 0.0 1.0 0.00 0.08 0.07 82 1017.7
20260906162437 56 89 0.0 0.0 0.01 0.08 0.07 84 1017.8
20260906160938 54 152 0.0 0.0 0.01 0.08 0.07 85 1017.8
20260906155437 53 152 0.0 0.0 0.01 0.08 0.07 85 1017.8
20260906153937 53 152 0.0 1.0 0.04 0.08 0.07 85 1017.8
20260906152438 53 149 0.0 0.0 0.04 0.07 0.06 86 1017.8
20260906150935 53 220 0.0 0.0 0.06 0.07 0.06 85 1017.6
20260906145436 53 178 0.0 0.0 0.06 0.07 0.06 85 1017.3
20260906144642 53 177 0.0 0.0 0.03 0.04 0.03 85 1017.1
20260906142434 53 177 0.0 2.0 0.02 0.03 0.02 86 1016.7
20260906140936 54 275 0.0 1.0 0.00 0.01 0.00 87 1016.6
20260906135436 54 228 0.0 0.0 0.00 0.01 0.00 87 1016.4
20260906133936 54 228 0.0 0.0 0.00 0.01 0.00 87 1016.2
20260906132435 54 228 0.0 0.0 0.00 0.01 0.00 87 1016.1
20260906131635 54 228 0.0 0.0 0.00 0.01 0.00 87 1016.0
20260906125433 53 228 0.0 0.0 0.00 0.01 0.00 87 1016.0
20260906123931 53 228 0.0 0.0 0.00 0.01 0.00 86 1015.9
20260906122430 53 228 0.0 0.0 0.00 0.01 0.00 86 1016.0
20260906120926 53 228 0.0 0.0 0.00 0.01 0.00 86 1016.1
20260906115425 54 263 0.0 0.0 0.00 0.01 0.00 85 1016.1
20260906113924 54 264 0.0 0.0 0.00 0.01 0.00 86 1016.1
20260906113118 54 264 0.0 0.0 0.00 0.01 0.00 85 1016.1
20260906110922 54 264 0.0 0.0 0.00 0.01 0.00 85 1016.1
20260906105423 54 264 0.0 0.0 0.00 0.01 0.00 85 1016.1
20260906103920 54 264 0.0 0.0 0.00 0.01 0.00 84 1016.0
20260906102421 54 264 0.0 0.0 0.00 0.01 0.00 84 1016.0
20260906101616 54 264 0.0 0.0 0.00 0.01 0.00 84 1015.9
20260906095417 54 264 0.0 0.0 0.00 0.01 0.00 84 1015.9
20260906093915 55 264 0.0 0.0 0.00 0.01 0.00 84 1015.9
20260906092414 54 264 0.0 0.0 0.00 0.01 0.00 84 1016.1
20260906091604 55 264 0.0 0.0 0.00 0.01 0.00 84 1016.0
20260906085414 55 264 0.0 0.0 0.00 0.01 0.00 84 1015.9
20260906083912 55 264 0.0 0.0 0.00 0.01 0.00 84 1015.9
20260906082411 55 264 0.0 0.0 0.00 0.01 0.00 84 1015.9
20260906081610 56 264 0.0 0.0 0.00 0.01 0.00 84 1015.9
20260906080803 56 264 0.0 0.0 0.00 0.01 0.00 82 1015.8
20260906074600 56 264 0.0 0.0 0.00 0.01 0.00 83 1016.0
20260906072409 56 264 0.0 0.0 0.00 0.01 0.00 82 1016.0
20260906071614 56 264 0.0 0.0 0.00 0.01 0.00 82 1015.9
20260906063905 57 264 0.0 0.0 0.00 0.01 0.01 81 1016.0
20260906062405 57 264 0.0 0.0 0.00 0.01 0.01 81 1016.0
20260906060905 58 264 0.0 0.0 0.00 0.01 0.01 80 1016.0
20260906055405 58 263 0.0 0.0 0.00 0.01 0.01 79 1015.9
20260906053901 58 264 0.0 0.0 0.00 0.01 0.01 78 1016.0
20260906052400 59 264 0.0 0.0 0.00 0.01 0.01 77 1015.9
20260906050859 59 264 0.0 0.0 0.00 0.01 0.01 76 1016.0
20260906045357 59 264 0.0 0.0 0.00 0.01 0.01 77 1016.0
20260906043855 59 264 0.0 0.0 0.00 0.01 0.01 77 1016.0
20260906042352 59 264 0.0 0.0 0.00 0.01 0.01 77 1016.1
20260906041551 59 264 0.0 0.0 0.00 0.01 0.01 78 1016.1
20260906035347 59 274 0.0 1.0 0.00 0.01 0.01 77 1015.9
20260906033847 59 256 0.0 1.0 0.00 0.01 0.01 76 1015.7
20260906033053 59 197 0.0 0.0 0.00 0.01 0.01 76 1015.5
20260906030847 61 258 0.0 3.0 0.00 0.01 0.01 74 1015.4
20260906025346 61 274 0.0 0.0 0.00 0.01 0.01 71 1014.9
20260906023846 61 301 0.0 0.0 0.00 0.01 0.01 72 1014.9
20260906022345 61 301 0.0 0.0 0.00 0.01 0.01 71 1015.0
20260906020843 62 301 0.0 1.0 0.00 0.01 0.01 70 1015.1
20260906015341 61 275 0.0 1.0 0.01 0.01 0.01 68 1015.1
20260906013841 61 318 0.0 1.0 0.01 0.01 0.01 69 1015.0
20260906012340 62 324 0.0 0.0 0.01 0.01 0.01 70 1014.8
20260906010837 63 310 0.0 4.0 0.01 0.01 0.01 68 1014.7
20260906005335 67 263 1.0 10.0 0.00 0.00 0.00 57 1014.5
20260906003835 72 210 1.0 9.0 0.00 0.00 0.00 38 1013.6
20260906002335 73 308 1.0 7.0 0.00 0.00 0.00 32 1013.1
20260906000834 74 315 1.0 5.0 0.00 0.00 0.00 30 1013.0
20260905235335 75 287 1.0 4.0 0.00 0.00 0.00 29 1012.9
20260905234523 76 270 0.0 4.0 0.00 0.00 0.00 26 1012.8
20260905232328 75 340 0.0 2.0 0.00 0.00 0.00 26 1013.1
20260905230828 74 335 1.0 14.0 0.00 0.00 0.00 25 1013.2
20260905225329 75 354 0.0 6.0 0.00 0.00 0.00 25 1013.3
20260905223828 74 301 1.0 6.0 0.00 0.00 0.00 27 1013.5
20260905222328 74 252 1.0 10.0 0.00 0.00 0.00 27 1013.8
20260905220828 74 291 0.0 6.0 0.00 0.00 0.00 29 1014.0
20260905215328 73 265 0.0 2.0 0.00 0.00 0.00 30 1014.2